Weather in Zhukovo

Russia / Smolensk Oblast     54°54′14″N   32°01′08″E
temp.,
°C
wind,
m/s
gust,
m/s
humid.,
%
clouds,
%
prec.,
mm/h
press.,
hPa
HPBL,
m
24 january, mon
mon2400:00−18nne1110096 0.0 10369
03:00−18ene1110095 0.0 10379
06:00−19nnw00100100 0.0 10379
09:00−20sse11100100 0.0 10389
12:00−10wsw119353 0.0 103792
15:00−8sw12915 0.0 1035152
18:00−15s229972 0.0 10359
21:00−17s22100100 0.0 103421
25 january, tue
tue2500:00−17ssw24100100 0.0 103258
03:00−16s389978 0.0 1030122
06:00−14ssw3109659 0.0 1027185
09:00−12ssw31191100 0.0 1024234
12:00−8ssw41195100 0.4 1021300
15:00−6ssw4995100 0.9 1018357
18:00−6ssw3896100 1.1 1016307
21:00−5wsw2697100 2.3 1016205
26 january, wed
wed2600:00−3n51191100 0.1 1017621
03:00−5nnw399586 0.1 1018508
06:00−6n5885100 0.1 1020650
09:00−13nnw249976 0.1 102146
12:00−10nnw359348 0.0 1022182
15:00−7nnw24905 0.0 1022228
18:00−16nw11100100 0.0 10239
21:00−16s11100100 0.0 10219
27 january, thu
thu2700:00−12s2596100 0.0 102090
03:00−12s3892100 0.0 1018165
06:00−12s31189100 0.0 1015234
09:00−10sse4128997 0.0 1013314
12:00−7s41294100 0.4 1012419
15:00−6s499497 0.8 1010390
18:00−6s4995100 0.3 1009324
21:00−5s499688 0.6 1007299
28 january, fri
fri2800:00−4s41196100 0.1 1004445
03:00−3s61496100 0.2 1002609
06:00−3s51396100 1.8 999658
09:00−2s41098100 3.3 997557
12:000ssw4898100 0.8 997533
15:000ssw389799 1.1 996623
18:000s3898100 0.8 995488
21:00−1sse2499100 1.4 996143